{"data":{"norad_id":51947,"epoch":"2026-05-25T02:33:34.311168Z","epoch_age_seconds":66026,"freshness":"FRESH","line1":"1 51947U 22023B   26145.10664712  .00014638  00000+0  64054-3 0  9993","line2":"2 51947  63.4853 348.1596 0098136 347.2595  12.6038 15.17986651234216","mean_motion":15.17986651,"eccentricity":0.0098136,"inclination_deg":63.4853,"raan_deg":348.1596,"arg_perigee_deg":347.2595,"mean_anomaly_deg":12.6038,"bstar":0.00064054,"rev_number":23421,"period_min":94.862494281579,"perigee_km":444.3098885695,"apogee_km":579.54253726204,"semimajor_km":6890.0632129158,"source":"CELESTRAK","updated_at":"2026-05-25T13:37:57.569257Z"}}